ホームズ彗星

17P/Holmes (2014)

English version
Home page
Updated on February 26, 2012

---------------------------------------------------------------------

・ プロフィール

・ 軌道要素

The following orbital elements are taken from MPC 75731:

Epoch 2014 Apr. 13.0 TT = JDT 2456760.5
T 2014 Mar. 27.4782 TT                                  MPC
q   2.056581             (2000.0)            P               Q
n   0.1431099      Peri.   24.5145      +0.9759312      +0.1241877
a   3.619842       Node   326.7649      -0.2106026      +0.7500937
e   0.431859       Incl.   19.0916      +0.0566116      +0.6495666
P   6.89
From 139 observations 1964-2001, mean residual 0".7.  Nongravitational
     parameters A1 = +0.19, A2 = +0.0287.

・ 星図

・ 光度変化

        m1 = 7.5 + 5 logΔ + 15   log r  [    ,-225]  (              〜2013年 8月14日)
        m1 = 1.5 + 5 logΔ + 35   log r  [-225, 160]  (2013年 8月14日〜2014年 9月 3日)
        m1 = 9.3 + 5 logΔ + 15.0 log r  [ 160,    ]  (2014年 9月 3日〜              )

---------------------------------------------------------------------

軌道要素はMPCのEphemerides and Orbital Elementsに掲載されたものです。
星図はステラナビゲータ Ver.8 (アストロアーツ) で作成したものです。
光度グラフはComet for Windowsで作成したものです。

---------------------------------------------------------------------

Copyright(C) Seiichi Yoshida (comet@aerith.net). All rights reserved.